Temp
73 74 82 83 83 84 84 83 83 83 83 83 83 83 83 83 83 83 83 83 84 84 84 84 84 83 83 83 83 83 83 83 83 82 82 82 82 82 82 82 82 81 82
73 75 81 83 83 83 83 83 83 83 83 83 83 83 83 83 83 83 83 84 84 84 84 84 83 83 83 83 83 83 83 83 83 83 83 83 83 82 83 83 82 81 82
73 76 79 82 83 83 83 83 83 83 82 83 83 83 83 83 83 83 84 84 83 83 84 83 83 83 83 83 83 83 82 82 83 83 83 77 78 82 82 83 82 82 82
74 75 77 82 82 83 82 83 83 83 83 83 83 83 83 83 83 84 84 84 84 84 83 83 83 83 83 82 82 82 82 82 83 83 77 77 80 82 82 83 82 82 81
74 75 78 82 83 83 82 82 82 83 83 83 83 83 83 83 83 83 83 84 84 83 83 83 83 83 82 82 82 82 82 82 83 83 77 75 73 81 82 82 82 81 81
74 77 81 83 83 82 82 82 82 82 83 82 83 83 83 83 84 84 84 83 83 83 83 83 83 83 83 83 82 82 83 83 84 77 78 76 75 80 82 82 82 82 81
74 75 78 82 82 82 82 82 82 82 83 83 83 83 83 83 84 83 83 83 83 83 83 83 83 84 84 83 82 83 83 84 78 75 76 76 75 80 82 82 82 82 81
74 74 77 82 82 82 82 82 82 82 83 83 83 83 83 83 83 83 82 82 83 83 82 83 83 83 84 84 82 82 83 84 79 76 75 74 77 80 82 82 82 81 81
73 74 75 76 80 82 83 83 82 83 83 83 83 82 83 83 83 82 82 82 83 83 83 83 83 84 84 82 82 82 83 84 75 75 79 74 78 80 82 82 82 82 81
73 74 73 74 75 75 76 83 82 82 82 82 82 83 83 83 83 83 82 81 82 83 83 83 84 84 82 82 82 82 79 81 76 76 74 76 79 81 82 83 82 81 81
72 72 73 73 73 73 75 79 81 82 83 83 82 83 81 76 76 79 81 82 83 84 84 84 84 82 82 80 80 81 81 75 76 75 74 75 78 80 82 82 81 81 81
69 71 72 72 72 73 79 74 74 76 75 74 75 74 73 73 74 80 81 82 83 82 83 84 83 82 82 74 73 78 73 75 74 78 75 79 78 80 81 82 81 81 81
70 73 73 72 72 72 73 72 72 72 73 72 73 73 73 74 74 74 73 72 71 77 76 77 76 74 73 72 72 72 73 74 73 76 78 80 80 81 82 81 82 81 81
73 72 73 73 72 72 72 71 71 72 72 71 73 73 72 72 73 73 72 73 73 73 73 73 72 72 71 73 72 72 73 73 72 73 74 79 80 82 82 82 82 81 81
70 72 73 73 71 71 71 70 70 71 71 71 72 73 73 72 72 73 73 72 71 72 72 72 72 72 71 72 73 74 74 73 73 72 71 78 81 81 82 83 82 82 82
71 72 74 73 72 71 70 69 70 71 71 73 72 73 75 74 73 73 72 70 68 70 72 72 72 71 72 72 75 76 75 73 73 72 75 73 79 80 81 82 82 82 82
70 72 73 73 73 71 72 71 71 73 75 73 74 75 76 76 74 74 72 71 69 69 70 72 72 73 73 74 73 75 75 76 73 74 75 74 74 78 80 80 81 81 81
71 72 73 79 74 72 72 72 73 73 73 73 74 74 76 76 75 74 72 71 71 68 70 72 71 72 72 71 71 73 74 74 75 75 75 75 75 77 79 80 80 80 82
72 72 71 74 73 73 72 72 73 73 72 73 73 74 75 76 77 73 72 73 73 71 71 72 71 71 71 71 73 74 74 72 73 77 75 75 75 74 75 78 80 80 81
73 72 72 73 72 72 71 70 71 71 73 73 73 73 76 76 77 73 74 74 74 73 72 71 70 71 71 70 75 75 72 72 72 71 72 75 73 73 72 75 73 74 79
75 72 72 71 71 70 68 68 68 69 71 72 74 76 75 74 76 75 74 74 74 73 73 72 71 70 70 70 69 70 71 72 71 71 71 70 71 75 73 73 71 71 73
74 73 72 72 71 71 70 69 70 70 71 71 72 74 75 76 76 75 74 74 73 72 72 72 71 69 69 70 68 65 64 68 69 70 70 70 70 71 72 72 71 72 71
74 73 73 72 72 72 71 70 69 70 70 70 71 72 74 75 75 74 75 74 73 72 71 72 71 70 68 69 68 67 62 60 63 66 67 67 68 67 68 69 71 71 71
75 76 75 73 72 73 71 71 69 69 68 69 70 71 73 75 75 76 75 74 71 71 70 70 73 71 69 67 68 69 66 66 63 62 64 66 66 67 66 69 68 69 69
78 77 75 73 73 73 73 74 73 69 69 70 69 71 72 73 75 76 75 72 70 69 68 70 70 69 68 68 66 66 65 64 63 61 58 61 65 64 65 65 66 66 68
79 78 76 73 73 73 73 72 72 71 70 69 69 69 70 71 73 74 74 70 70 68 69 70 70 70 68 67 67 66 64 63 62 61 59 59 59 64 66 64 64 64 66
MSLP
1015.51 1015.23 1014.81 1014.71 1014.78 1014.78 1014.76 1014.84 1014.95 1014.92 1015.08 1015.31 1015.40 1015.40 1015.50 1015.51 1015.57 1015.66 1015.73 1015.84 1015.86 1015.90 1016.04 1016.13 1016.14 1016.17 1016.21 1016.27 1016.30 1016.35 1016.33 1016.35 1016.30 1016.23 1016.41 1016.48 1016.43 1016.53 1016.66 1016.74 1016.82 1017.01 1017.17
1015.43 1015.31 1015.19 1015.10 1015.05 1015.03 1015.13 1015.20 1015.30 1015.33 1015.45 1015.60 1015.64 1015.66 1015.61 1015.76 1015.78 1015.80 1015.89 1016.03 1016.04 1015.97 1016.21 1016.37 1016.33 1016.37 1016.52 1016.58 1016.57 1016.49 1016.54 1016.54 1016.51 1016.42 1016.41 1016.48 1016.56 1016.56 1016.66 1016.75 1016.92 1017.07 1017.27
1015.81 1015.67 1015.59 1015.43 1015.40 1015.42 1015.45 1015.48 1015.46 1015.60 1015.77 1015.82 1015.78 1015.81 1015.73 1015.90 1016.06 1016.12 1016.08 1016.18 1016.23 1016.22 1016.33 1016.53 1016.55 1016.46 1016.68 1016.78 1016.82 1016.80 1016.75 1016.70 1016.73 1016.66 1016.68 1016.80 1016.71 1016.67 1016.78 1016.84 1016.99 1017.18 1017.30
1015.92 1015.82 1015.79 1015.70 1015.68 1015.76 1015.77 1015.77 1015.75 1015.87 1015.97 1016.07 1016.16 1016.14 1016.06 1016.16 1016.31 1016.34 1016.38 1016.40 1016.54 1016.57 1016.63 1016.77 1016.92 1016.92 1016.96 1017.02 1016.98 1017.06 1016.94 1016.99 1016.96 1016.88 1016.91 1016.87 1016.85 1016.70 1016.76 1016.91 1017.03 1017.14 1017.39
1016.16 1016.15 1015.94 1015.90 1015.90 1016.04 1016.02 1015.89 1016.01 1016.13 1016.24 1016.28 1016.32 1016.45 1016.41 1016.47 1016.52 1016.59 1016.59 1016.70 1016.82 1016.83 1016.86 1016.99 1017.09 1017.12 1017.19 1017.19 1017.20 1017.03 1017.05 1016.96 1017.00 1017.02 1017.12 1017.11 1017.11 1016.91 1016.79 1016.88 1016.97 1017.18 1017.35
1016.24 1016.23 1016.13 1016.09 1016.14 1016.19 1016.18 1016.20 1016.13 1016.20 1016.42 1016.46 1016.44 1016.56 1016.66 1016.72 1016.70 1016.77 1016.82 1016.87 1016.97 1017.01 1017.05 1017.05 1017.16 1017.22 1017.29 1017.32 1017.35 1017.35 1017.15 1017.05 1016.87 1016.92 1016.87 1017.06 1017.18 1017.12 1017.04 1016.97 1016.99 1017.12 1017.29
1016.45 1016.48 1016.39 1016.40 1016.35 1016.39 1016.37 1016.42 1016.42 1016.43 1016.61 1016.72 1016.83 1016.86 1016.93 1016.91 1016.97 1017.07 1017.16 1017.28 1017.36 1017.27 1017.32 1017.29 1017.24 1017.27 1017.39 1017.40 1017.36 1017.41 1017.45 1017.31 1017.25 1017.11 1017.04 1016.96 1017.16 1017.21 1017.18 1017.15 1017.03 1016.98 1017.18
1016.66 1016.76 1016.61 1016.59 1016.49 1016.44 1016.57 1016.66 1016.65 1016.63 1016.74 1016.89 1017.06 1017.23 1017.39 1017.34 1017.28 1017.29 1017.42 1017.48 1017.58 1017.56 1017.55 1017.41 1017.32 1017.37 1017.45 1017.42 1017.36 1017.54 1017.44 1017.26 1017.30 1017.20 1017.31 1017.38 1017.25 1017.38 1017.37 1017.28 1017.09 1017.03 1017.06
1016.90 1016.91 1016.90 1016.73 1016.61 1016.64 1016.77 1016.87 1016.90 1016.91 1017.17 1017.28 1017.37 1017.54 1017.58 1017.47 1017.53 1017.57 1017.66 1017.69 1017.71 1017.65 1017.56 1017.40 1017.30 1017.33 1017.38 1017.51 1017.42 1017.34 1017.25 1017.18 1017.60 1017.33 1017.08 1017.34 1017.32 1017.33 1017.38 1017.34 1017.31 1017.07 1016.89
1017.08 1016.96 1016.95 1016.84 1016.91 1017.00 1017.06 1017.04 1017.13 1017.13 1017.35 1017.44 1017.41 1017.50 1017.49 1017.46 1017.57 1017.60 1017.62 1017.76 1017.65 1017.45 1017.46 1017.27 1017.13 1017.08 1017.27 1017.40 1017.55 1017.43 1017.17 1017.14 1017.19 1017.21 1017.24 1017.20 1017.12 1017.08 1017.15 1017.09 1017.28 1017.29 1017.12
1017.29 1017.07 1017.00 1017.06 1017.43 1017.43 1017.35 1017.18 1017.30 1017.35 1017.45 1017.43 1017.38 1017.51 1017.61 1017.72 1017.67 1017.59 1017.39 1017.51 1017.43 1017.25 1017.16 1016.95 1016.76 1016.99 1016.87 1017.26 1017.63 1017.40 1017.00 1016.98 1016.67 1016.63 1016.42 1015.71 1016.37 1016.69 1016.82 1016.82 1016.93 1017.02 1017.00
1017.52 1017.49 1017.32 1017.45 1017.60 1017.56 1017.30 1017.41 1017.67 1017.71 1017.65 1017.70 1017.78 1017.87 1017.86 1017.81 1017.76 1017.58 1017.45 1017.35 1017.32 1017.07 1016.83 1016.70 1016.66 1016.70 1016.62 1017.21 1017.70 1017.40 1016.94 1016.52 1016.57 1016.23 1016.12 1015.40 1015.85 1016.05 1016.40 1016.39 1016.33 1016.58 1016.70
1017.59 1017.56 1017.55 1017.53 1017.40 1017.53 1017.59 1017.82 1017.90 1017.92 1017.90 1017.90 1017.82 1017.70 1017.83 1017.74 1017.70 1017.61 1017.50 1017.46 1017.47 1017.24 1017.00 1016.80 1016.89 1016.91 1017.24 1017.33 1017.38 1017.14 1016.70 1016.34 1016.19 1016.27 1015.75 1015.77 1015.68 1015.63 1015.81 1015.88 1015.98 1016.23 1016.35
1017.73 1017.64 1017.58 1017.36 1017.56 1017.69 1017.83 1018.01 1018.06 1018.05 1018.04 1018.04 1017.84 1017.92 1018.04 1017.90 1017.83 1017.69 1017.62 1017.33 1017.26 1017.20 1017.03 1016.94 1016.84 1016.84 1017.10 1016.96 1016.86 1016.89 1016.63 1016.26 1016.02 1015.93 1015.86 1015.36 1015.44 1015.16 1015.26 1015.38 1015.62 1015.72 1015.83
1017.73 1017.64 1017.67 1017.60 1017.72 1017.79 1017.91 1018.13 1018.16 1018.15 1018.20 1018.10 1017.97 1017.92 1017.90 1017.97 1017.80 1017.56 1017.27 1017.25 1017.12 1017.11 1017.01 1016.78 1016.65 1016.64 1016.69 1016.39 1016.10 1016.20 1016.05 1015.95 1015.72 1015.64 1015.67 1015.35 1015.18 1015.02 1015.09 1015.07 1015.19 1015.37 1015.40
1017.78 1017.75 1017.74 1017.68 1017.66 1017.84 1017.95 1018.09 1018.21 1018.26 1018.18 1018.02 1017.89 1017.79 1017.68 1017.61 1017.50 1017.48 1017.42 1017.33 1017.33 1017.08 1016.90 1016.85 1016.77 1016.80 1016.68 1016.41 1016.00 1015.85 1015.74 1015.68 1015.48 1015.44 1015.32 1015.36 1015.19 1015.07 1014.87 1014.78 1014.72 1014.80 1014.86
1017.57 1017.65 1017.69 1017.57 1017.63 1017.94 1017.88 1018.05 1018.23 1018.07 1017.89 1017.90 1017.56 1017.40 1017.31 1017.33 1017.26 1017.22 1017.40 1017.44 1017.46 1017.23 1017.16 1017.06 1016.94 1016.66 1016.68 1016.30 1016.31 1015.96 1015.59 1015.28 1015.20 1015.06 1014.91 1014.90 1015.09 1015.11 1014.95 1014.90 1014.74 1014.63 1014.66
1017.30 1017.48 1017.57 1017.57 1017.63 1017.90 1017.84 1017.93 1017.82 1017.80 1017.80 1017.69 1017.48 1017.39 1017.25 1017.20 1017.25 1017.30 1017.45 1017.33 1017.12 1017.14 1017.10 1016.93 1017.02 1016.82 1016.74 1016.49 1016.20 1015.62 1015.36 1015.15 1014.96 1014.83 1014.84 1014.94 1015.09 1015.02 1014.88 1014.79 1014.57 1014.54 1014.31
1016.89 1017.12 1017.49 1017.56 1017.58 1017.80 1017.72 1017.73 1017.64 1017.60 1017.72 1017.61 1017.58 1017.48 1017.27 1017.06 1017.13 1017.30 1017.35 1017.14 1017.04 1017.00 1016.91 1016.97 1017.02 1017.11 1016.88 1016.58 1016.18 1015.74 1015.48 1015.28 1015.07 1014.85 1014.86 1014.76 1014.72 1014.64 1014.60 1014.29 1014.14 1014.04 1014.01
1016.57 1016.89 1017.25 1017.44 1017.48 1017.62 1017.65 1017.75 1017.67 1017.67 1017.60 1017.43 1017.42 1017.40 1017.19 1017.08 1016.99 1017.25 1017.19 1017.02 1016.90 1017.07 1017.07 1017.08 1017.03 1016.74 1016.62 1016.52 1016.11 1015.72 1015.46 1015.32 1015.17 1015.08 1015.12 1014.90 1014.79 1014.70 1014.61 1014.42 1014.24 1014.06 1013.71
1016.23 1016.75 1016.99 1017.32 1017.41 1017.69 1017.88 1018.00 1018.00 1017.98 1017.77 1017.57 1017.24 1017.09 1017.10 1017.06 1016.89 1017.01 1017.01 1016.92 1016.88 1017.06 1017.06 1017.01 1016.97 1016.96 1016.47 1016.25 1016.31 1015.83 1015.49 1015.29 1015.29 1015.24 1015.07 1015.02 1014.94 1014.78 1014.73 1014.45 1014.26 1014.01 1013.54
1015.74 1016.22 1016.61 1016.90 1017.16 1017.41 1017.52 1017.57 1017.56 1017.60 1017.59 1017.59 1017.28 1017.13 1017.06 1016.89 1016.72 1016.92 1016.90 1017.09 1017.14 1017.31 1017.30 1017.10 1017.04 1017.03 1016.91 1016.62 1016.87 1016.95 1016.49 1015.75 1015.59 1015.28 1015.15 1015.19 1015.03 1014.78 1014.60 1014.45 1014.20 1013.80 1013.33
1015.20 1015.53 1016.03 1016.39 1016.64 1016.93 1017.15 1017.40 1017.59 1017.64 1017.56 1017.67 1017.38 1017.18 1016.94 1016.93 1016.75 1016.73 1016.69 1016.71 1016.91 1017.12 1017.15 1017.14 1017.10 1017.14 1017.22 1016.87 1016.83 1017.03 1017.06 1017.02 1016.42 1015.57 1015.27 1015.23 1015.27 1015.15 1014.81 1014.32 1013.82 1013.55 1013.34
1014.47 1014.87 1015.36 1015.85 1016.22 1016.46 1016.76 1017.20 1017.50 1017.43 1017.65 1017.56 1017.39 1017.19 1017.01 1016.75 1016.56 1016.20 1016.30 1016.50 1016.78 1016.97 1017.11 1017.02 1016.96 1016.94 1017.06 1017.08 1016.88 1016.86 1017.05 1017.10 1017.00 1016.22 1015.66 1015.48 1015.31 1015.08 1014.78 1014.33 1014.00 1013.75 1013.38
1013.88 1014.24 1014.76 1015.34 1015.73 1016.03 1016.31 1016.57 1017.00 1017.19 1017.24 1017.10 1017.26 1017.32 1017.09 1016.73 1016.38 1016.12 1016.22 1016.58 1016.98 1017.14 1017.21 1017.05 1017.04 1016.98 1016.98 1017.08 1017.17 1017.06 1016.96 1017.05 1017.28 1017.34 1016.75 1015.95 1015.35 1015.18 1014.85 1014.47 1014.03 1013.71 1013.31
1013.25 1013.69 1014.15 1014.71 1015.07 1015.47 1015.74 1016.14 1016.45 1016.70 1016.88 1017.14 1017.25 1017.41 1017.14 1016.95 1016.80 1016.41 1016.47 1016.74 1016.89 1017.04 1017.12 1016.97 1016.95 1017.00 1017.20 1017.25 1017.16 1017.24 1017.31 1017.42 1017.45 1017.46 1017.27 1016.83 1016.37 1015.09 1014.70 1014.50 1014.15 1013.88 1013.52
Wind_Speed
3 1 10 14 15 15 16 16 16 16 16 16 16 16 15 15 15 15 14 14 13 13 12 11 11 10 10 9 9 9 8 7 6 5 3 4 5 5 6 7 7 5 6
2 2 10 13 14 14 14 15 15 15 15 15 16 15 15 14 13 15 14 13 11 11 11 10 9 9 9 9 8 8 7 6 5 6 5 3 4 5 3 5 5 5 6
2 4 7 12 13 13 14 14 14 14 13 15 14 14 14 13 13 13 13 11 10 11 10 9 8 9 9 8 7 7 5 4 4 4 3 1 1 6 4 4 5 5 5
4 4 5 11 12 13 12 13 13 13 14 13 12 12 13 13 12 12 11 10 9 9 9 8 7 7 7 5 4 3 3 1 3 3 1 2 3 7 6 6 6 5 5
3 4 7 12 13 12 12 12 12 12 12 11 12 11 12 11 12 11 10 9 8 6 6 5 4 4 4 4 3 3 4 4 6 6 4 4 3 5 7 7 6 5 5
5 4 9 12 13 12 11 11 12 11 10 10 11 11 10 10 11 11 9 7 5 4 4 4 5 5 5 5 5 5 7 9 9 4 5 6 5 7 9 8 7 7 6
4 3 5 11 12 11 10 10 11 11 9 9 10 9 9 9 9 8 6 4 2 2 3 4 6 7 6 7 8 8 9 11 6 5 5 5 5 8 11 10 9 10 8
5 4 5 10 11 10 9 9 9 9 9 9 8 7 6 6 6 6 4 2 1 3 5 6 7 8 8 8 8 7 9 9 3 5 5 2 5 8 12 12 10 9 9
5 5 4 3 8 9 9 8 7 8 8 7 6 4 4 3 1 2 1 2 4 5 7 8 9 9 9 9 10 8 8 10 3 3 2 0 5 9 14 13 12 12 12
5 6 5 4 3 4 3 8 7 7 6 5 4 2 1 1 0 2 2 3 6 7 9 10 10 10 7 8 8 10 16 17 1 4 2 2 9 11 16 14 13 13 13
3 5 5 4 3 3 2 3 4 5 5 4 1 1 1 2 3 5 6 6 7 8 9 11 12 10 9 4 6 7 8 6 5 3 3 11 15 12 16 15 14 14 15
4 2 3 4 2 2 2 3 3 3 0 0 2 4 3 3 4 6 8 9 7 9 11 12 11 11 11 3 2 5 2 5 5 4 5 20 16 16 16 16 14 15 16
4 3 4 3 5 4 2 2 1 1 1 1 2 2 2 3 3 3 2 2 2 7 3 5 4 3 4 2 4 4 3 2 3 2 9 13 14 17 20 17 14 15 16
5 5 5 4 3 2 2 2 0 1 1 2 3 3 2 2 2 1 2 3 3 3 5 4 2 3 4 5 6 2 5 4 3 3 6 18 12 8 13 14 14 14 15
5 4 4 4 3 3 3 2 1 1 0 3 3 4 3 3 2 2 1 1 4 2 3 3 4 4 5 6 5 2 4 5 6 3 3 16 15 10 12 12 11 15 16
4 5 5 5 4 4 3 4 2 1 2 4 4 4 3 3 2 1 3 4 4 4 3 4 4 4 4 5 7 5 4 5 6 5 5 7 16 11 10 12 12 15 17
5 6 6 6 5 5 4 4 3 3 2 3 3 4 4 3 4 3 2 2 3 3 5 3 4 4 4 4 4 4 4 6 5 8 7 5 3 10 13 15 14 16 18
6 7 6 6 6 6 5 4 3 1 2 3 3 3 6 5 4 2 3 3 2 2 3 3 3 3 2 3 4 5 3 1 3 6 4 3 3 4 7 12 16 18 18
9 7 7 6 7 7 5 4 3 2 2 2 1 3 5 3 4 3 4 3 3 2 2 1 1 1 3 4 5 4 5 4 4 4 2 2 2 2 2 7 11 13 17
9 7 7 7 7 6 3 2 2 2 3 3 2 3 5 4 4 3 4 2 3 3 3 1 2 2 3 4 4 3 4 3 1 1 3 3 3 4 5 5 5 5 15
10 8 8 7 7 4 2 1 1 3 2 3 4 6 4 4 6 4 2 1 3 2 3 3 2 3 2 1 3 4 3 2 3 1 3 4 4 4 4 5 4 4 5
12 11 8 9 8 6 3 2 2 2 3 3 4 5 5 6 6 4 5 1 2 3 3 3 2 3 2 2 1 1 4 5 3 5 4 4 5 4 4 5 6 7 5
12 13 11 11 9 7 7 2 0 1 2 2 3 4 4 5 6 5 5 2 2 1 3 3 2 2 2 2 1 1 3 3 5 2 3 3 5 4 5 5 6 6 6
14 12 12 11 10 8 8 5 6 5 4 3 3 3 5 5 7 4 4 2 0 0 3 3 2 2 1 2 2 1 2 3 2 6 2 4 4 5 6 6 6 6 6
13 12 11 11 11 9 10 10 8 6 4 3 2 5 6 6 6 6 2 3 1 1 3 4 5 3 1 1 1 2 1 0 1 3 5 6 4 2 4 4 5 4 4
12 12 11 11 12 11 11 10 11 10 7 4 4 4 4 3 4 5 1 2 1 2 2 2 1 3 3 2 1 2 1 2 2 2 3 3 5 7 5 4 4 4 4
Wind_Direction
337 45 116 104 98 94 94 94 93 91 89 92 93 95 97 102 104 104 99 94 93 95 96 96 93 92 101 101 99 93 100 98 110 126 143 166 152 150 148 132 121 119 121
180 135 112 111 104 97 96 94 93 89 95 94 92 94 103 105 105 104 101 101 102 104 96 97 98 97 95 99 104 108 108 117 131 137 154 159 172 167 171 142 141 144 140
129 124 109 108 108 99 95 96 95 95 95 101 101 103 104 104 100 101 106 103 101 99 100 97 98 100 97 101 98 110 115 138 148 149 162 137 133 194 175 186 161 166 165
149 129 109 105 99 96 99 97 99 97 95 95 100 103 102 106 107 116 111 111 109 104 101 97 88 86 86 83 85 73 94 155 210 206 181 219 234 190 202 191 181 172 172
132 122 138 122 109 104 101 105 101 104 99 110 109 108 108 111 110 110 111 111 109 97 79 68 67 66 53 28 9 356 310 295 265 250 231 243 271 232 213 213 198 197 203
147 138 128 118 115 119 116 113 112 111 116 113 115 119 111 121 117 117 119 112 98 86 60 24 356 7 13 355 346 336 328 318 303 294 217 226 238 248 224 216 210 220 204
115 126 116 121 122 120 122 125 119 121 125 114 120 120 118 120 121 119 117 105 77 57 11 7 338 338 348 343 340 344 338 329 5 322 263 201 213 237 234 226 213 214 206
119 115 112 129 127 136 132 129 123 137 123 121 113 117 115 106 119 117 115 101 320 348 325 327 318 317 323 325 323 342 327 322 3 16 9 275 206 235 243 240 227 220 207
124 109 99 132 144 142 132 135 125 130 108 98 98 106 114 139 139 86 19 337 314 315 305 304 306 309 315 320 328 334 339 320 328 326 4 322 268 244 244 244 242 230 217
116 129 158 150 132 107 111 134 133 114 106 104 118 126 148 161 128 295 268 301 299 298 298 298 297 296 309 331 321 18 1 317 33 252 65 316 276 254 245 240 241 242 232
147 160 156 142 99 87 109 137 122 129 127 126 189 240 347 322 298 279 258 254 266 276 285 283 286 288 290 330 357 310 201 247 251 186 156 309 268 256 242 240 234 240 241
158 148 131 117 135 157 172 106 88 45 9 40 5 334 338 292 269 273 280 294 321 299 277 273 276 288 310 36 15 280 239 236 254 248 190 221 238 230 239 240 233 231 242
162 156 143 168 189 179 139 99 92 41 309 356 312 238 298 284 281 282 333 306 301 280 289 297 298 285 336 70 232 260 278 220 228 191 253 231 225 234 235 234 235 237 240
146 155 165 187 212 171 126 89 145 165 294 262 262 271 301 300 327 302 292 301 282 273 280 281 295 301 303 259 242 239 234 237 222 231 260 271 250 257 232 225 233 237 242
159 169 172 165 170 141 168 139 200 270 13 259 280 272 238 242 240 252 268 293 290 281 269 314 319 301 298 297 287 271 245 245 241 227 253 270 278 261 242 232 235 245 245
158 187 190 200 170 178 193 191 189 207 270 275 265 256 264 270 249 228 331 333 324 316 328 321 323 295 285 292 306 305 271 247 250 251 240 241 253 269 276 267 257 251 246
195 197 196 208 185 191 221 180 195 228 275 277 260 247 260 253 290 329 299 286 298 321 325 320 300 302 304 317 308 313 291 283 244 238 242 250 276 292 295 282 268 259 256
184 191 195 196 187 202 220 202 220 236 292 293 341 321 302 268 272 316 297 294 284 298 301 322 307 306 295 335 310 299 296 282 319 262 262 290 304 304 301 292 272 260 256
196 191 191 202 202 206 221 229 236 290 285 286 343 315 317 270 286 230 264 293 334 312 300 319 308 264 317 318 307 326 332 336 351 10 318 280 295 337 286 302 305 295 288
198 201 190 198 212 214 222 260 316 313 298 318 299 276 308 286 269 239 253 306 331 356 341 336 274 260 217 266 285 292 309 300 4 66 309 305 299 301 309 301 309 317 307
200 198 203 191 206 174 186 200 282 249 299 296 303 310 338 278 260 265 276 279 308 312 298 303 296 305 296 340 348 332 316 254 290 356 298 302 321 316 311 297 293 289 290
192 198 200 203 190 199 187 202 179 191 234 251 284 296 304 291 271 259 250 211 276 310 328 304 310 325 306 13 328 331 334 328 354 318 343 348 329 334 325 299 277 287 287
195 195 197 201 199 199 199 164 309 7 347 321 292 292 277 277 282 274 258 204 290 339 355 315 342 308 308 309 213 178 342 285 323 318 351 334 358 338 323 318 305 307 299
200 197 195 197 199 202 189 190 196 197 209 223 232 275 299 300 300 293 237 177 28 31 342 310 344 324 280 346 342 116 185 203 271 322 354 322 339 322 319 322 319 333 332
197 196 193 193 199 200 200 205 209 219 221 230 255 288 298 306 318 308 248 129 63 348 327 321 7 13 43 61 44 301 312 40 174 219 285 319 310 262 302 304 319 326 344
196 195 192 192 204 198 199 203 208 211 218 229 243 256 273 290 307 311 303 203 230 250 292 331 59 41 29 33 332 17 5 327 290 281 278 295 287 320 314 315 338 348 348